Hope, British Columbia

2:43 PM PST on January 23, 2018 (GMT -0800)
Hope

Weather History for CYHE - October, 2013

Change the Weather History Date:

Wednesday, October 23, 2013

  Actual Average Record
Temperature  
Mean Temperature 56 °F -  
Max Temperature 65 °F 48 °F 66 °F (2007)
Min Temperature 48 °F 37 °F 35 °F (2006)
Degree Days  
Heating Degree Days 8    
Growing Degree Days 6 (Base 50)    
Moisture  
Dew Point 45 °F    
Average Humidity 70    
Maximum Humidity 82    
Minimum Humidity 39    
Precipitation  
Precipitation 0.00 in 0.34 in - ()
Sea Level Pressure  
Sea Level Pressure 30.08 in    
Wind  
Wind Speed 10 mph ()    
Max Wind Speed 16 mph    
Max Gust Speed 21 mph    
Visibility 9.0 miles    
Events      
Averages and records for this station are not official NWS values.
T = Trace of Precipitation, MM = Missing Value Source: Averaged Metar Reports

Daily Weather History Graph

Daily Weather History Graph

Search for Another Location

Airport or City:

Trip Planner

Search our weather history database for the weather conditions in past years. The results will help you decide how hot, cold, wet, or windy it might be!

Date:

Astronomy

Oct. 23, 2013 Rise Set
Actual Time 7:40 AM PDT 5:59 PM PDT
Civil Twilight 7:07 AM PDT 6:32 PM PDT
Nautical Twilight 6:30 AM PDT 7:09 PM PDT
Astronomical Twilight 5:53 AM PDT 7:46 PM PDT
Moon 9:21 PM PDT 12:15 PM PDT
Length of Visible Light 11h 24m
Length of Day
10h 19m
Waning Gibbous, 78% of the Moon is Illuminated
Oct 23
Waning Gibbous
Oct 26
Last Quarter
Nov 3
New
Nov 9
First Quarter
Nov 17
Full

Hourly Weather History & Observations

Time (PDT) Temp. Dew Point Humidity Pressure Visibility Wind Dir Wind Speed Gust Speed Precip Events Conditions
12:00 AM 51.8 °F 46.4 °F 82% 30.11 in 9.0 mi East 9.2 mph 17.3 mph N/A   Clear
1:00 AM 50.0 °F 44.6 °F 82% 30.11 in 9.0 mi East 8.1 mph - N/A   Clear
2:00 AM 50 °F 45 °F 77% 30.11 in - ENE 10.4 mph - -  
2:00 AM 50.0 °F 44.6 °F 82% 30.12 in 9.0 mi East 11.5 mph 20.7 mph N/A   Clear
3:00 AM 50.0 °F 44.6 °F 82% 30.12 in 9.0 mi East 11.5 mph 17.3 mph N/A   Clear
4:00 AM 50.0 °F 44.6 °F 82% 30.12 in 9.0 mi East 9.2 mph 17.3 mph N/A   Clear
5:00 AM 49 °F 43 °F 74% 30.12 in - East 15.0 mph - -  
5:00 AM 50.0 °F 42.8 °F 76% 30.12 in 9.0 mi ESE 15.0 mph - N/A   Clear
6:00 AM 50.0 °F 42.8 °F 76% 30.12 in 9.0 mi East 13.8 mph - N/A   Clear
7:00 AM 50.0 °F 42.8 °F 76% 30.12 in 9.0 mi ESE 16.1 mph - N/A   Clear
8:00 AM 48 °F 42 °F 75% 30.13 in - ENE 10.4 mph - -  
8:00 AM 48.2 °F 42.8 °F 82% 30.14 in 9.0 mi East 12.7 mph 18.4 mph N/A   Clear
9:00 AM 50.0 °F 42.8 °F 76% 30.14 in 9.0 mi East 12.7 mph 19.6 mph N/A   Clear
10:00 AM 51.8 °F 42.8 °F 71% 30.14 in 9.0 mi East 10.4 mph - N/A   Clear
11:00 AM 56 °F 45 °F 56% 30.12 in - East 13.8 mph - -  
11:00 AM 55.4 °F 44.6 °F 67% 30.12 in 9.0 mi East 15.0 mph - N/A   Clear
12:00 PM 59.0 °F 44.6 °F 59% 30.10 in 9.0 mi ESE 13.8 mph - N/A   Clear
1:00 PM 62.6 °F 44.6 °F 52% 30.07 in 9.0 mi ESE 13.8 mph 20.7 mph N/A   Clear
2:00 PM 65 °F 46 °F 39% 30.04 in - East 12.7 mph - -  
2:00 PM 66.2 °F 46.4 °F 49% 30.04 in 9.0 mi ESE 12.7 mph 18.4 mph N/A   Clear
3:00 PM 66.2 °F 46.4 °F 49% 30.02 in 9.0 mi ESE 10.4 mph - N/A   Clear
4:00 PM 60.8 °F 46.4 °F 59% 30.01 in 9.0 mi ESE 9.2 mph - N/A   Clear
5:00 PM 60 °F 47 °F 53% 30.00 in - East 6.9 mph - -  
5:00 PM 60.8 °F 46.4 °F 59% 30.01 in 9.0 mi East 9.2 mph - N/A   Clear
6:00 PM 57.2 °F 48.2 °F 72% 30.01 in 9.0 mi East 5.8 mph - N/A   Clear
7:00 PM 55.4 °F 48.2 °F 77% 30.03 in 9.0 mi ENE 5.8 mph - N/A   Clear
8:00 PM 55 °F 47 °F 68% 30.03 in - ENE 6.9 mph - -  
8:00 PM 55.4 °F 48.2 °F 77% 30.04 in 9.0 mi ENE 6.9 mph - N/A   Clear
9:00 PM 53.6 °F 46.4 °F 77% 30.04 in 9.0 mi East 11.5 mph - N/A   Clear
10:00 PM 53.6 °F 46.4 °F 77% 30.06 in 9.0 mi East 8.1 mph - N/A   Clear
11:00 PM 52 °F 46 °F 75% 30.06 in - ENE 8.1 mph - -  
11:00 PM 51.8 °F 46.4 °F 82% 30.07 in 9.0 mi ENE 6.9 mph - N/A   Clear